Syracuse, NY

3:15 PM EDT on April 25, 2017 (GMT -0400)
Syracuse Hancock International

Weather History for KSYR - October, 2012

Change the Weather History Date:

Monday, October 8, 2012

  Actual Average Record
Temperature  
Mean Temperature 48 °F 53 °F  
Max Temperature 57 °F 63 °F 83 °F (1916)
Min Temperature 39 °F 44 °F 25 °F (1964)
Degree Days  
Heating Degree Days 17 12  
Month to date heating degree days 53 87  
Since 1 July heating degree days 168 254  
Cooling Degree Days 0 0  
Month to date cooling degree days 2 0  
Year to date cooling degree days 953 565  
Moisture  
Dew Point 38 °F    
Average Humidity 66    
Maximum Humidity 89    
Minimum Humidity 43    
Precipitation  
Precipitation 0.01 in 0.11 in 1.57 in (1903)
Month to date precipitation 0.90 0.92  
Year to date precipitation 23.04 29.20  
Snow  
Snow 0.00 in 0.00 in 0.20 in (2001)
Month to date snowfall 0.0 0.0  
Since 1 July snowfall 0.0 0.0  
Since 1 September snowfall 0.0 0.0  
Snow Depth 0.00 in    
Sea Level Pressure  
Sea Level Pressure 30.20 in    
Wind  
Wind Speed 5 mph (South)    
Max Wind Speed 15 mph    
Max Gust Speed 18 mph    
Visibility 10 miles    
Events Rain    
T = Trace of Precipitation, MM = Missing Value Source: NWS Daily Summary

Daily Weather History Graph

Daily Weather History Graph

Search for Another Location

Airport or City:

Trip Planner

Search our weather history database for the weather conditions in past years. The results will help you decide how hot, cold, wet, or windy it might be!

Date:

Astronomy

Oct. 08, 2012 Rise Set
Actual Time 7:10 AM EDT 6:32 PM EDT
Civil Twilight 6:41 AM EDT 7:00 PM EDT
Nautical Twilight 6:08 AM EDT 7:33 PM EDT
Astronomical Twilight 5:35 AM EDT 8:06 PM EDT
Moon No Moon Rise 2:30 PM EDT (10/8)
Length of Visible Light 12h 19m
Length of Day
11h 22m
Waning Gibbous, 46% of the Moon is Illuminated
Oct 8
Waning Gibbous
Oct 15
New
Oct 21
First Quarter
Oct 29
Full
Nov 6
Last Quarter

Hourly Weather History & Observations

Time (EDT) Temp. Windchill Dew Point Humidity Pressure Visibility Wind Dir Wind Speed Gust Speed Precip Events Conditions
12:14 AM 44.6 °F 40.7 °F 42.8 °F 93% 30.09 in 10.0 mi WSW 6.9 mph - 0.00 in   Overcast
12:54 AM 45.0 °F 39.7 °F 42.1 °F 90% 30.10 in 10.0 mi WSW 10.4 mph - 0.00 in   Overcast
1:54 AM 45.0 °F 40.1 °F 39.9 °F 82% 30.12 in 10.0 mi WSW 9.2 mph - 0.00 in   Light Drizzle
2:54 AM 44.1 °F 39.0 °F 39.9 °F 85% 30.13 in 10.0 mi WSW 9.2 mph - 0.00 in   Light Drizzle
3:54 AM 44.1 °F 39.0 °F 39.0 °F 82% 30.14 in 10.0 mi WSW 9.2 mph - 0.01 in   Overcast
4:08 AM 44.6 °F 38.8 °F 39.2 °F 81% 30.14 in 10.0 mi WSW 11.5 mph - N/A   Overcast
4:54 AM 43.0 °F 37.7 °F 39.0 °F 86% 30.15 in 10.0 mi WSW 9.2 mph - 0.00 in Rain Light Rain
5:54 AM 42.1 °F - 37.9 °F 85% 30.16 in 10.0 mi Calm Calm - 0.00 in   Overcast
6:54 AM 42.1 °F 37.7 °F 39.0 °F 89% 30.20 in 10.0 mi WSW 6.9 mph - N/A   Overcast
7:54 AM 41.0 °F 39.0 °F 37.9 °F 89% 30.22 in 10.0 mi ESE 3.5 mph - N/A   Scattered Clouds
8:54 AM 46.0 °F 43.1 °F 39.9 °F 79% 30.23 in 10.0 mi SSW 5.8 mph - N/A   Scattered Clouds
9:54 AM 48.9 °F - 39.9 °F 71% 30.24 in 10.0 mi SW 3.5 mph - N/A   Scattered Clouds
10:54 AM 50.0 °F - 41.0 °F 71% 30.25 in 10.0 mi SSW 4.6 mph - N/A   Mostly Cloudy
11:54 AM 53.1 °F - 39.0 °F 59% 30.25 in 10.0 mi Calm Calm - N/A   Mostly Cloudy
12:54 PM 55.9 °F - 37.0 °F 49% 30.23 in 10.0 mi East 4.6 mph - N/A   Clear
1:54 PM 55.9 °F - 34.0 °F 44% 30.21 in 10.0 mi Calm Calm - N/A   Overcast
2:54 PM 57.0 °F - 36.0 °F 45% 30.21 in 10.0 mi East 4.6 mph - N/A   Overcast
3:54 PM 55.9 °F - 37.9 °F 51% 30.21 in 10.0 mi ENE 6.9 mph - N/A   Overcast
4:54 PM 54.0 °F - 39.9 °F 59% 30.21 in 10.0 mi East 4.6 mph - N/A   Overcast
5:54 PM 53.1 °F - 32.0 °F 45% 30.22 in 10.0 mi South 4.6 mph - N/A   Overcast
6:54 PM 48.9 °F - 41.0 °F 74% 30.23 in 10.0 mi ESE 3.5 mph - N/A   Mostly Cloudy
7:54 PM 48.0 °F - 37.9 °F 68% 30.22 in 10.0 mi SE 4.6 mph - N/A   Mostly Cloudy
8:54 PM 45.0 °F 42.6 °F 37.0 °F 74% 30.24 in 10.0 mi East 4.6 mph - N/A   Mostly Cloudy
9:54 PM 44.1 °F 42.5 °F 37.0 °F 76% 30.24 in 10.0 mi ESE 3.5 mph - N/A   Mostly Cloudy
10:54 PM 41.0 °F 38.0 °F 36.0 °F 82% 30.25 in 10.0 mi ESE 4.6 mph - N/A   Mostly Cloudy
11:54 PM 39.9 °F 35.8 °F 35.1 °F 83% 30.24 in 10.0 mi ESE 5.8 mph - N/A   Scattered Clouds